Flag for Germany Weather past 2 weeks in Neuburg an der Donau, Bavaria, Germany

Now
45 °F

Quite cool.


Feels Like: 45 °F
Forecast: 40 / 52 °F
Wind: 2 mph from Northeast

Location: Neuburg / Donau

Current Time: Oct 25, 2014 at 9:49:24 PM

Latest Report: Oct 25, 2014 at 8:20 PM


Visibility: N/A

Pressure: 30.21 "Hg

Humidity: 100%

Dew point: 45 °F

Location of Neuburg an der DonauLocation

Historic Weather in Neuburg an der Donau — Graph

°F

Neuburg an der Donau temperature yesterday

Maximum temperature yesterday: 54 °F (at 3:20 PM)
Minimum temperature yesterday: 39 °F (at 6:20 AM)
Average temperature yesterday: 46 °F

Past Weeks' High & Low Weather Summary

 TemperatureHumidityPressure
High68 °F (Oct 19, 4:20 PM)100% (Oct 11, 12:20 AM)30.27 "Hg (Oct 11, 12:20 AM)
Low36 °F (Oct 25, 1:20 AM)60% (Oct 14, 1:20 PM)29.62 "Hg (Oct 21, 8:20 PM)
Average53 °F91%30.00 "Hg
* Reported Oct 10 8:20 PM — Oct 25 8:20 PM, Neuburg an der Donau, Weather by CustomWeather, © 2014

Note: Actual official high and low records may vary slightly from our data, if they occured in-between our weather recording intervals... More about our weather records

Advertising

Neuburg an der Donau weather history for previous 24 hours

 ConditionsComfort  
Time TempWeatherWind HumidityBarometerVisibility
8:20 PM
Oct 25
45 °FQuite cool.2 mph100%30.21 "HgN/A
7:20 PM46 °FCool.2 mph93%30.21 "HgN/A
6:20 PM46 °FCool.2 mph93%30.21 "HgN/A
5:20 PM46 °FCool.3 mph93%30.18 "HgN/A
4:20 PM46 °FCool.2 mph87%30.18 "HgN/A
3:20 PM45 °FQuite cool.1 mph93%30.18 "HgN/A
2:20 PM45 °FQuite cool.1 mph87%30.18 "HgN/A
1:20 PM43 °FQuite cool.2 mph93%30.18 "HgN/A
12:20 PM43 °FQuite cool.1 mph93%30.18 "HgN/A
11:20 AM41 °FQuite cool.2 mph100%30.18 "HgN/A
10:20 AM39 °FChilly.1 mph100%30.15 "HgN/A
9:20 AM39 °FChilly.1 mph100%30.15 "HgN/A
8:20 AM39 °FChilly.6 mph100%30.15 "HgN/A
7:20 AM39 °FChilly.3 mph100%30.12 "HgN/A
6:20 AM39 °FChilly.2 mph100%30.12 "HgN/A
5:20 AM39 °FChilly.5 mph100%30.12 "HgN/A
4:20 AM39 °FChilly.5 mph100%30.12 "HgN/A
3:20 AM37 °FChilly.3 mph100%30.12 "HgN/A
2:20 AM36 °FChilly.No wind100%30.15 "HgN/A
1:20 AM36 °FChilly.No wind100%30.15 "HgN/A
12:20 AM37 °FChilly.1 mph100%30.15 "HgN/A
11:20 PM
Oct 24
39 °FChilly.3 mph100%30.15 "HgN/A
10:20 PM39 °FChilly.No wind100%30.15 "HgN/A
9:20 PM41 °FQuite cool.2 mph100%30.15 "HgN/A
Weather by CustomWeather, © 2014

See weather overviewHow to use our weather pages